Hourly Weather Wlora

Today, 5 July, Sunday

Time Temperature Precipitation Wind Pressure Humidity
00:00 +24°C° 0 mm 7 mps 758 mmHg 80%
01:00 +24°C° 0 mm 6 mps 758 mmHg 77%
02:00 +24°C° 0 mm 6 mps 758 mmHg 78%
03:00 +24°C° 0 mm 6 mps 757 mmHg 80%
04:00 +24°C° 0 mm 7 mps 757 mmHg 81%
05:00 +26°C° 0 mm 6 mps 757 mmHg 76%
06:00 +27°C° 0 mm 6 mps 757 mmHg 70%
07:00 +28°C° 0 mm 6 mps 757 mmHg 64%
08:00 +30°C° 0 mm 6 mps 757 mmHg 57%
09:00 +32°C° 0 mm 6 mps 757 mmHg 51%
10:00 +34°C° 0 mm 6 mps 757 mmHg 44%
11:00 +34°C° 0 mm 7 mps 757 mmHg 42%
12:00 +35°C° 0 mm 7 mps 756 mmHg 41%
13:00 +37°C° 0 mm 8 mps 756 mmHg 40%
14:00 +33°C° 1.1 mm 8 mps 756 mmHg 50%
15:00 +29°C° 1.1 mm 7 mps 756 mmHg 61%
16:00 +27°C° 1.1 mm 7 mps 756 mmHg 71%
17:00 +27°C° 0.5 mm 6 mps 756 mmHg 71%
18:00 +26°C° 0.5 mm 5 mps 756 mmHg 71%
19:00 +26°C° 0.5 mm 4 mps 756 mmHg 70%
20:00 +26°C° 0.1 mm 4 mps 756 mmHg 70%
21:00 +26°C° 0.1 mm 4 mps 756 mmHg 69%
22:00 +26°C° 0.1 mm 4 mps 756 mmHg 68%
23:00 +26°C° 0.1 mm 4 mps 756 mmHg 70%

Tomorrow, 6 July, Monday

Time Temperature Precipitation Wind Pressure Humidity
00:00 +25°C° 0.1 mm 4 mps 756 mmHg 71%
01:00 +25°C° 0.1 mm 4 mps 755 mmHg 72%
02:00 +25°C° 0.3 mm 4 mps 755 mmHg 73%
03:00 +25°C° 0.3 mm 4 mps 755 mmHg 74%
04:00 +25°C° 0.3 mm 4 mps 754 mmHg 74%
05:00 +25°C° 0.1 mm 4 mps 754 mmHg 74%
06:00 +25°C° 0.1 mm 5 mps 754 mmHg 74%
07:00 +25°C° 0.1 mm 5 mps 754 mmHg 74%
08:00 +27°C° 0 mm 4 mps 754 mmHg 67%
09:00 +28°C° 0 mm 4 mps 754 mmHg 60%
10:00 +30°C° 0 mm 3 mps 754 mmHg 52%
11:00 +32°C° 0 mm 4 mps 754 mmHg 49%
12:00 +33°C° 0 mm 4 mps 754 mmHg 46%
13:00 +34°C° 0 mm 4 mps 753 mmHg 42%
14:00 +33°C° 0 mm 5 mps 753 mmHg 45%
15:00 +33°C° 0 mm 6 mps 753 mmHg 49%
16:00 +33°C° 0 mm 8 mps 752 mmHg 52%
17:00 +30°C° 0 mm 7 mps 752 mmHg 60%
18:00 +29°C° 0 mm 6 mps 753 mmHg 69%
19:00 +27°C° 0 mm 6 mps 753 mmHg 77%
20:00 +27°C° 0 mm 5 mps 753 mmHg 79%
21:00 +26°C° 0 mm 4 mps 753 mmHg 80%
22:00 +25°C° 0 mm 4 mps 753 mmHg 82%
23:00 +25°C° 0 mm 4 mps 753 mmHg 80%

Day after tomorrow, 7 July, Tuesday

Time Temperature Precipitation Wind Pressure Humidity
00:00 +25°C° 0 mm 4 mps 753 mmHg 78%
01:00 +25°C° 0 mm 4 mps 752 mmHg 77%
02:00 +25°C° 0 mm 5 mps 752 mmHg 76%
03:00 +25°C° 0 mm 5 mps 752 mmHg 76%
04:00 +24°C° 0 mm 6 mps 752 mmHg 76%
05:00 +26°C° 0 mm 6 mps 752 mmHg 70%
06:00 +27°C° 0 mm 5 mps 752 mmHg 64%
07:00 +29°C° 0 mm 5 mps 752 mmHg 59%
08:00 +30°C° 0 mm 6 mps 752 mmHg 56%
09:00 +32°C° 0 mm 7 mps 753 mmHg 54%
10:00 +33°C° 0 mm 8 mps 753 mmHg 51%
11:00 +33°C° 0 mm 8 mps 753 mmHg 53%
12:00 +33°C° 0 mm 8 mps 753 mmHg 55%
13:00 +33°C° 0 mm 8 mps 753 mmHg 56%
14:00 +33°C° 0.1 mm 9 mps 753 mmHg 60%
15:00 +32°C° 0.1 mm 10 mps 753 mmHg 63%
16:00 +31°C° 0.1 mm 11 mps 753 mmHg 66%
17:00 +29°C° 0 mm 11 mps 754 mmHg 69%
18:00 +28°C° 0 mm 11 mps 754 mmHg 72%
19:00 +27°C° 0 mm 11 mps 755 mmHg 74%
20:00 +26°C° 0 mm 11 mps 755 mmHg 77%
21:00 +24°C° 0 mm 11 mps 755 mmHg 80%
22:00 +24°C° 0 mm 10 mps 756 mmHg 82%
23:00 +23°C° 0 mm 10 mps 756 mmHg 82%

8 July, Wednesday

Time Temperature Precipitation Wind Pressure Humidity
00:00 +23°C° 0 mm 9 mps 756 mmHg 82%
01:00 +23°C° 0 mm 9 mps 756 mmHg 81%
02:00 +22°C° 0 mm 8 mps 756 mmHg 81%
03:00 +22°C° 0 mm 7 mps 756 mmHg 80%
04:00 +22°C° 0 mm 6 mps 756 mmHg 79%
05:00 +23°C° 0 mm 7 mps 756 mmHg 75%
06:00 +24°C° 0 mm 7 mps 757 mmHg 72%
07:00 +26°C° 0 mm 7 mps 757 mmHg 68%
08:00 +27°C° 0 mm 8 mps 757 mmHg 63%
09:00 +29°C° 0 mm 8 mps 757 mmHg 58%
10:00 +31°C° 0 mm 9 mps 758 mmHg 52%
11:00 +31°C° 0 mm 10 mps 758 mmHg 51%
12:00 +31°C° 0 mm 10 mps 758 mmHg 50%
13:00 +31°C° 0 mm 11 mps 758 mmHg 49%
14:00 +31°C° 0 mm 11 mps 758 mmHg 50%
15:00 +29°C° 0 mm 10 mps 758 mmHg 51%
16:00 +29°C° 0 mm 10 mps 758 mmHg 52%
17:00 +27°C° 0 mm 10 mps 758 mmHg 56%
18:00 +26°C° 0 mm 9 mps 758 mmHg 60%
19:00 +24°C° 0 mm 9 mps 758 mmHg 64%
20:00 +24°C° 0 mm 9 mps 759 mmHg 65%
21:00 +23°C° 0 mm 9 mps 759 mmHg 67%
22:00 +23°C° 0 mm 9 mps 759 mmHg 68%
23:00 +23°C° 0 mm 8 mps 759 mmHg 68%

9 July, Thursday

Time Temperature Precipitation Wind Pressure Humidity
00:00 +22°C° 0 mm 7 mps 759 mmHg 67%
01:00 +22°C° 0 mm 7 mps 759 mmHg 67%
02:00 +22°C° 0 mm 6 mps 759 mmHg 67%
03:00 +22°C° 0 mm 6 mps 759 mmHg 67%
04:00 +21°C° 0 mm 6 mps 759 mmHg 67%
05:00 +23°C° 0 mm 6 mps 760 mmHg 62%
06:00 +25°C° 0 mm 5 mps 760 mmHg 57%
07:00 +26°C° 0 mm 5 mps 760 mmHg 52%
08:00 +28°C° 0 mm 5 mps 760 mmHg 48%
09:00 +29°C° 0 mm 5 mps 760 mmHg 45%
10:00 +32°C° 0 mm 5 mps 761 mmHg 41%
11:00 +32°C° 0 mm 5 mps 760 mmHg 42%
12:00 +32°C° 0 mm 5 mps 760 mmHg 43%
13:00 +33°C° 0 mm 5 mps 760 mmHg 43%
14:00 +32°C° 0 mm 5 mps 760 mmHg 45%
15:00 +32°C° 0 mm 5 mps 760 mmHg 46%
16:00 +32°C° 0 mm 5 mps 760 mmHg 47%
17:00 +29°C° 0 mm 5 mps 760 mmHg 53%
18:00 +28°C° 0 mm 5 mps 760 mmHg 59%
19:00 +27°C° 0 mm 5 mps 760 mmHg 65%
20:00 +26°C° 0 mm 5 mps 760 mmHg 66%
21:00 +26°C° 0 mm 4 mps 760 mmHg 67%
22:00 +25°C° 0 mm 4 mps 761 mmHg 68%
23:00 +25°C° 0 mm 3 mps 761 mmHg 67%

10 July, Friday

Time Temperature Precipitation Wind Pressure Humidity
00:00 +25°C° 0 mm 3 mps 761 mmHg 65%
01:00 +25°C° 0 mm 3 mps 761 mmHg 64%
02:00 +25°C° 0 mm 2 mps 761 mmHg 63%
03:00 +25°C° 0 mm 2 mps 760 mmHg 61%
04:00 +24°C° 0 mm 2 mps 760 mmHg 60%
05:00 +26°C° 0 mm 2 mps 760 mmHg 56%
06:00 +27°C° 0 mm 2 mps 760 mmHg 53%
07:00 +29°C° 0 mm 1 mps 761 mmHg 49%
08:00 +30°C° 0 mm 1 mps 761 mmHg 47%
09:00 +31°C° 0 mm 1 mps 761 mmHg 44%
10:00 +32°C° 0 mm 1 mps 761 mmHg 41%
11:00 +32°C° 0 mm 2 mps 760 mmHg 42%
12:00 +34°C° 0 mm 2 mps 760 mmHg 42%
13:00 +34°C° 0 mm 2 mps 760 mmHg 43%
14:00 +32°C° 0 mm 2 mps 760 mmHg 45%
15:00 +33°C° 0 mm 3 mps 760 mmHg 48%
16:00 +32°C° 0 mm 4 mps 759 mmHg 50%
17:00 +30°C° 0 mm 4 mps 759 mmHg 55%
18:00 +29°C° 0 mm 4 mps 759 mmHg 59%
19:00 +28°C° 0 mm 4 mps 759 mmHg 64%
20:00 +27°C° 0 mm 3 mps 760 mmHg 64%
21:00 +27°C° 0 mm 3 mps 760 mmHg 65%
22:00 +26°C° 0 mm 3 mps 760 mmHg 65%
23:00 +26°C° 0 mm 3 mps 760 mmHg 65%
Show more